#timestamp,LO_Frequency,Hit,StdDev 
1508270415.1,286047022.9,N
1508270435.8,286047026.4,N
1508270455.7,286047025.8,N
1508270475.5,286047025.4,N
1508270495.3,286047025.7,N
1508270515.2,286047026.4,N
1508270535.9,286047025.1,N
1508270555.7,286047024.0,N
1508270575.6,286047026.3,N
1508270595.4,286047028.2,N
1508270615.2,286047030.9,Y
1508270635.1,286047015.4,P
1508270636.0,286047015.4,P
1508270655.8,286047009.8,P
1508270675.6,286047008.5,Y
1508270695.5,286046993.0,P
1508270715.3,286046996.0,N
1508270735.1,286046995.9,N
1508270755.9,286046996.2,N
1508270775.7,286046996.4,N
1508270795.5,286046997.7,N
1508270815.4,286046995.4,N
1508270835.2,286046993.9,N
1508270855.0,286046998.6,N
1508270855.9,286046998.6,N
1508270875.8,286046995.4,N
1508270895.6,286046995.0,N
1508270915.4,286046999.5,N
1508270935.2,286046999.2,N
1508270955.1,286046995.5,N
1508270956.0,286046995.5,N
1508270975.8,286046996.9,N
1508270995.6,286046998.7,N
1508271015.5,286046996.8,N
1508271035.3,286046993.4,N
1508271055.1,286046995.5,N
1508271075.9,286046996.9,N
1508271095.7,286046996.7,N
1508271115.5,286046997.0,N
1508271135.4,286046994.5,N
1508271155.2,286046998.0,N
1508271175.0,286046993.3,N
1508271175.9,286046993.3,N
1508271195.8,286046996.9,N
1508271215.6,286046998.7,N
1508271235.4,286046993.7,Y
1508271255.3,286046998.4,P
1508271275.1,286047004.2,P
1508271276.0,286047004.2,N
1508271295.8,286047002.5,N
1508271315.7,286047001.2,N
1508271335.5,286046997.3,N
1508271355.3,286046999.2,N
1508271375.2,286046998.0,N
1508271395.9,286046993.3,N
1508271415.7,286046994.6,N
1508271435.5,286046990.5,N
1508271455.4,286046990.2,N
1508271475.2,286046990.7,N
1508271495.0,286046990.6,N
1508271495.9,286046990.6,N
1508271515.8,286046988.7,N
1508271535.6,286046989.2,N
1508271555.4,286046985.8,N
1508271575.3,286046985.6,N
1508271595.1,286046988.4,N
1508271596.0,286046988.4,N
1508271615.8,286046984.2,N
1508271635.7,286046983.4,N
1508271655.5,286046982.0,N
1508271675.3,286046981.4,N
1508271695.2,286046979.4,Y
1508271715.9,286046987.1,P
1508271735.7,286046991.2,P
1508271755.6,286046989.1,P
1508271775.4,286046991.5,Y
1508271795.2,286046994.9,P
1508271815.1,286046990.1,P
1508271816.0,286046990.1,P
1508271835.8,286046992.8,Y
1508271855.6,286047001.5,P
1508271875.5,286047005.4,N
1508271895.3,286047005.7,N
1508271915.1,286047003.6,N
1508271935.9,286047001.7,N
1508271955.7,286047003.8,N
1508271975.5,286047000.5,N
1508271995.4,286046998.4,N
1508272015.2,286046999.6,N
1508272035.0,286046996.1,N
1508272035.9,286046996.1,N
1508272055.8,286046997.6,N
1508272075.6,286047004.3,N
1508272095.4,286047009.2,N
1508272115.2,286047008.3,N
1508272135.1,286047012.1,N
1508272136.0,286047012.1,N
1508272155.8,286047012.1,N
1508272175.6,286047013.0,N
1508272195.5,286047017.2,N
1508272215.3,286047017.5,N
1508272235.1,286047020.1,N
1508272255.9,286047021.9,N
1508272275.7,286047020.4,N
1508272295.5,286047021.5,N
1508272315.4,286047023.9,N
1508272335.2,286047026.5,N
1508272355.0,286047028.0,N
1508272355.9,286047028.0,N
1508272375.8,286047026.9,N
1508272395.6,286047028.9,N
1508272415.4,286047029.2,N
1508272435.3,286047031.4,N
1508272455.1,286047031.5,N
1508272456.0,286047031.5,N
1508272475.8,286047029.6,N
1508272495.7,286047027.1,N
1508272515.5,286047027.9,N
1508272535.3,286047026.6,N
1508272555.1,286047024.0,N
1508272575.9,286047023.7,N
1508272595.7,286047027.9,Y
1508272615.6,286047007.5,P
1508272635.4,286047003.5,N
1508272655.2,286047005.3,N
1508272675.0,286047008.9,N
1508272676.0,286047008.9,N
1508272695.8,286047010.5,N
1508272715.6,286047009.2,N
1508272735.4,286047011.2,N
1508272755.3,286047010.6,N
1508272775.1,286047007.8,N
1508272795.8,286047010.2,N
1508272815.7,286047009.7,N
1508272835.5,286047010.8,N
1508272855.3,286047012.0,Y
1508272875.2,286047003.8,P
1508272895.9,286047001.1,N
1508272915.7,286047000.2,N
1508272935.6,286047001.0,N
1508272955.4,286047000.1,N
1508272975.2,286047005.7,N
1508272995.1,286047004.2,N
1508272996.0,286047004.2,N
1508273015.8,286047000.8,N
1508273035.6,286047000.2,N
1508273055.5,286047003.2,N
1508273075.3,286047003.2,N
1508273095.1,286047005.5,N
1508273115.9,286047001.5,N
1508273135.7,286047000.1,N
1508273155.5,286047002.4,N
1508273175.3,286047003.2,N
1508273195.2,286047003.3,N
1508273215.0,286047002.2,N
1508273215.9,286047002.2,N
1508273235.7,286047001.7,N
1508273255.6,286047001.4,N
1508273275.4,286047004.2,N
1508273295.2,286047004.1,N
1508273315.1,286046998.8,N
1508273316.0,286046998.8,N
1508273335.8,286046998.7,N
1508273355.6,286047002.8,N
1508273375.5,286046999.0,N
1508273395.3,286046999.1,N
1508273415.1,286046994.1,N
1508273435.9,286046992.9,N
1508273455.7,286046992.5,N
1508273475.5,286046990.8,N
1508273495.4,286046990.7,N
1508273515.2,286046988.4,N
1508273535.0,286046982.5,Y
1508273535.9,286046982.5,P
1508273555.8,286046978.9,N
1508273575.6,286046983.1,N
1508273595.4,286046980.9,N
1508273615.3,286046981.6,N
1508273635.1,286046981.4,N
1508273636.0,286046981.4,N
1508273655.8,286046982.7,N
1508273675.6,286046983.5,N
1508273695.5,286046979.4,Y
1508273715.3,286046999.1,P
1508273735.2,286046997.1,N
1508273755.9,286046997.3,N
1508273775.7,286046996.7,N
1508273795.5,286046998.0,N
1508273815.4,286046995.9,N
1508273835.2,286046993.4,N
1508273855.0,286046993.8,N
1508273855.9,286046993.8,N
1508273875.8,286046996.4,N
1508273895.6,286046991.7,N
1508273915.4,286046990.3,N
1508273935.3,286046990.6,N
1508273955.1,286046991.2,N
1508273975.8,286046991.1,N
1508273995.7,286046988.5,Y
